Weather History for Curacao, Curacao

Change the Weather History Date:

Sunday, April 14, 2013

  Actual Average Record
Temperature  
Mean Temperature 84 °F -  
Max Temperature 88 °F 87 °F 89 °F (2001)
Min Temperature 80 °F 76 °F 32 °F (1997)
Cooling Degree Days 19    
Growing Degree Days 34 (Base 50)    
Moisture  
Dew Point 73 °F    
Average Humidity 71    
Maximum Humidity 84    
Minimum Humidity 49    
Precipitation  
Precipitation 0.00 in 0.03 in - ()
Sea Level Pressure  
Sea Level Pressure 29.87 in    
Wind  
Wind Speed 15 mph ()    
Max Wind Speed 21 mph    
Max Gust Speed 28 mph    
Visibility 7.8 miles    
Events      
Averages and records for this station are not official NWS values.
T = Trace of Precipitation, MM = Missing Value Source: Averaged Metar Reports

Daily Weather History Graph

Daily Weather History Graph

Search for Another Location

Airport:

Trip Planner

Search our weather history database for the weather conditions in past years. The results will help you decide how hot, cold, wet, or windy it might be!

Date:

Astronomy

Apr. 14, 2013 Rise Set
Actual Time 6:24 AM AST 6:47 PM AST
Civil Twilight 6:02 AM AST 7:09 PM AST
Nautical Twilight 5:37 AM AST 7:34 PM AST
Astronomical Twilight 5:12 AM AST 7:59 PM AST
Moon 9:28 AM AST (4/14) 10:28 PM AST (4/14)
Length of Visible Light 13h 06m
Length of Day
12h 23m
Waxing Crescent, 17% of the Moon is Illuminated
Apr 14
Waxing Crescent
Apr 18
First Quarter
Apr 25
Full
May 2
Last Quarter
May 9
New

Hourly Weather History & Observations

Time (AST) Temp. Heat Index Dew Point Humidity Pressure Visibility Wind Dir Wind Speed Gust Speed Precip Events Conditions
1:00 AM 80.6 °F 85.4 °F 73.4 °F 79% 29.86 in 6.2 mi East 16.1 mph - N/A   Partly Cloudy
2:00 AM 80 °F - 74 °F 76% 29.86 in 11 mi East 15.0 mph - -   Scattered Clouds
2:00 AM 80.6 °F 85.4 °F 73.4 °F 79% 29.86 in 6.2 mi East 15.0 mph - N/A   Partly Cloudy
3:00 AM 80.6 °F 85.4 °F 73.4 °F 79% 29.83 in 6.2 mi ESE 16.1 mph - N/A   Partly Cloudy
4:00 AM 80.6 °F 86.2 °F 75.2 °F 84% 29.83 in 6.2 mi ESE 16.1 mph - N/A   Partly Cloudy
5:00 AM 80 °F - 73 °F 75% 29.83 in 3 mi ESE 17.3 mph - -  
5:00 AM 80.6 °F 85.4 °F 73.4 °F 79% 29.83 in 6.2 mi ESE 15.0 mph - N/A   Scattered Clouds
6:00 AM 80.6 °F 85.4 °F 73.4 °F 79% 29.86 in 6.2 mi ESE 16.1 mph - N/A   Scattered Clouds
7:00 AM 80.6 °F 85.4 °F 73.4 °F 79% 29.86 in 6.2 mi ESE 13.8 mph 27.6 mph N/A   Scattered Clouds
8:00 AM 82 °F - 73 °F 67% 29.89 in 11 mi ESE 18.4 mph - -   Haze
8:00 AM 82.4 °F 88.2 °F 73.4 °F 74% 29.89 in 6.2 mi ESE 18.4 mph - N/A   Scattered Clouds
9:00 AM 84.2 °F 90.9 °F 73.4 °F 70% 29.92 in 6.2 mi ESE 18.4 mph - N/A   Scattered Clouds
10:00 AM 86.0 °F 93.4 °F 73.4 °F 66% 29.92 in 6.2 mi East 18.4 mph - N/A   Scattered Clouds
11:00 AM 86 °F - 73 °F 56% 29.94 in 11 mi East 19.6 mph - -   Haze
11:00 AM 86.0 °F 91.8 °F 71.6 °F 62% 29.92 in 6.2 mi East 19.6 mph - N/A   Partly Cloudy
12:00 PM 87.8 °F 92.6 °F 69.8 °F 55% 29.92 in 6.2 mi East 20.7 mph - N/A   Partly Cloudy
1:00 PM 87.8 °F 93.8 °F 71.6 °F 58% 29.89 in 6.2 mi East 19.6 mph - N/A   Partly Cloudy
2:00 PM 87 °F - 71 °F 49% 29.87 in 16 mi East 19.6 mph - -   Scattered Clouds
2:00 PM 87.8 °F 93.8 °F 71.6 °F 58% 29.86 in 6.2 mi East 19.6 mph - N/A   Partly Cloudy
3:00 PM 86.0 °F 91.8 °F 71.6 °F 62% 29.86 in 6.2 mi East 18.4 mph - N/A   Partly Cloudy
4:00 PM 87.8 °F 93.8 °F 71.6 °F 58% 29.83 in 6.2 mi East 17.3 mph - N/A   Partly Cloudy
5:00 PM 85 °F - 72 °F 56% 29.83 in 16 mi ESE 18.4 mph - -   Mostly Cloudy
5:00 PM 84.2 °F 89.6 °F 71.6 °F 66% 29.83 in - ESE 17.3 mph - N/A   Clear
6:00 PM 82.4 °F 88.2 °F 73.4 °F 74% 29.83 in - East 17.3 mph - N/A   Clear
7:00 PM 82.4 °F 88.2 °F 73.4 °F 74% 29.83 in 6.2 mi East 15.0 mph - N/A   Partly Cloudy
8:00 PM 81 °F - 74 °F 74% 29.86 in 16 mi East 16.1 mph - -   Scattered Clouds
8:00 PM 80.6 °F 85.4 °F 73.4 °F 79% 29.86 in 6.2 mi East 16.1 mph - N/A   Partly Cloudy
9:00 PM 80.6 °F 86.2 °F 75.2 °F 84% 29.89 in 6.2 mi East 16.1 mph - N/A   Partly Cloudy
10:00 PM 80.6 °F 86.2 °F 75.2 °F 84% 29.89 in 6.2 mi East 15.0 mph - N/A   Partly Cloudy
11:00 PM 81 °F - 75 °F 78% 29.92 in 12 mi ESE 15.0 mph - -   Haze
11:00 PM 80.6 °F 86.2 °F 75.2 °F 84% 29.92 in 6.2 mi ESE 15.0 mph - N/A   Scattered Clouds